Mason City Municipal Airport
Sunday 1:53 PM
Temperature74° (74°/46°)
Dew Point49°
Relative Humidity41
%
Visibility10
mi
Pressure1024.7
mb
Wind DirectionS
190°
Wind Speed12
mph
Precipitation Today0.00"

Last 30 Observations

Time PresWx Temp DP Feels RH% Vsby Pressure Ceiling Direction Speed 1h Precip
12:53 PM 72° 48° 43
%
10
mi
1025.4
mb
S
180°
11
mph
0.00"
11:53 AM 71° 47° 42
%
10
mi
1026.1
mb
S
190°
9
mph
0.00"
10:53 AM 68° 47° 47
%
10
mi
1026.4
mb
S
170°
14
mph
0.00"
9:53 AM 65° 43° 45
%
10
mi
1027.1
mb
9,000
ft
S
170°
14
mph
0.00"
8:53 AM 62° 42° 48
%
10
mi
1027.1
mb
9,500
ft
SSE
160°
11
mph
0.00"
7:53 AM 58° 42° 55
%
10
mi
1026.8
mb
SE
130°
7
mph
0.00"
6:53 AM 54° 41° 61
%
10
mi
1026.4
mb
SE
130°
7
mph
0.00"
5:53 AM 48° 42° 46°80
%
10
mi
1026.1
mb
E
90°
5
mph
0.00"
4:53 AM 47° 43° 86
%
10
mi
1025.7
mb
Calm 0.00"
3:53 AM 48° 44° 47°86
%
10
mi
1025.7
mb
E
100°
3
mph
0.00"
2:53 AM 50° 42° 74
%
10
mi
1026.1
mb
Calm 0.00"
1:53 AM 52° 43° 71
%
10
mi
1025.7
mb
Calm 0.00"
12:53 AM 52° 45° 77
%
10
mi
1025.4
mb
ESE
110°
3
mph
0.00"
11:53 PM 54° 45° 72
%
10
mi
1025.4
mb
E
90°
3
mph
0.00"
10:53 PM 57° 46° 67
%
10
mi
1025.1
mb
E
80°
6
mph
0.00"
9:53 PM 59° 46° 62
%
10
mi
1024.4
mb
ENE
60°
8
mph
0.00"
8:53 PM 63° 45° 52
%
10
mi
1023.7
mb
NE
50°
5
mph
0.00"
7:53 PM 68° 42° 39
%
10
mi
1023.7
mb
NE
50°
8
mph
0.00"
6:53 PM 69° 43° 39
%
10
mi
1023.7
mb
NNW
340°
11
mph
0.00"
5:53 PM 69° 43° 39
%
10
mi
1024.1
mb
7,000
ft
NNE
20°
13
mph
0.00"
4:53 PM 71° 44° 38
%
10
mi
1024.1
mb
NNW
340°
7
mph
0.00"
3:53 PM 69° 45° 42
%
10
mi
1024.4
mb
7,000
ft
0.00"
2:53 PM 70° 46° 42
%
10
mi
1024.4
mb
NNW
340°
7
mph
0.00"
1:53 PM 69° 46° 44
%
10
mi
1025.1
mb
Variable 5
mph
0.00"
12:53 PM 68° 44° 42
%
10
mi
1025.4
mb
0.00"
11:53 AM 67° 44° 44
%
10
mi
1025.7
mb
Calm 0.00"
10:53 AM 65° 44° 47
%
10
mi
1025.7
mb
Variable 3
mph
0.00"
9:53 AM 63° 43° 48
%
10
mi
1026.1
mb
Calm 0.00"
8:53 AM 61° 47° 60
%
10
mi
1026.1
mb
NNE
30°
10
mph
0.00"
7:53 AM 58° 49° 72
%
10
mi
1025.7
mb
N
10°
9
mph
0.00"